Change the Weather History Date:

Wednesday, November 6, 2013

  Actual Average Record
Temperature  
Mean Temperature 28 °F -  
Max Temperature 32 °F 38 °F 69 °F (1996)
Min Temperature 24 °F 22 °F -2 °F (1991)
Degree Days  
Heating Degree Days 37    
Moisture  
Dew Point 20 °F    
Average Humidity 68    
Maximum Humidity 84    
Minimum Humidity 59    
Precipitation  
Precipitation 0.00 in - - ()
Sea Level Pressure  
Sea Level Pressure 30.08 in    
Wind  
Wind Speed 8 mph (NW)    
Max Wind Speed 17 mph    
Max Gust Speed 23 mph    
Visibility 10 miles    
Events      
Averages and records for this station are not official NWS values.
T = Trace of Precipitation, MM = Missing Value Source: NWS Daily Summary

Daily Weather History Graph

Daily Weather History Graph

Search for Another Location

Airport or City:

Trip Planner

Search our weather history database for the weather conditions in past years. The results will help you decide how hot, cold, wet, or windy it might be!

Date:

Astronomy

Nov. 06, 2013 Rise Set
Actual Time 7:02 AM CST 4:46 PM CST
Civil Twilight 6:30 AM CST 5:19 PM CST
Nautical Twilight 5:53 AM CST 5:55 PM CST
Astronomical Twilight 5:17 AM CST 6:31 PM CST
Moon 10:24 AM CST (11/6) 7:46 PM CST (11/6)
Length of Visible Light 10h 48m
Length of Day
9h 43m
Waxing Crescent, 14% of the Moon is Illuminated
Nov 6
Waxing Crescent
Nov 9
First Quarter
Nov 17
Full
Nov 25
Last Quarter
Dec 2
New

Hourly Weather History & Observations

Time (CST) Temp. Windchill Dew Point Humidity Pressure Visibility Wind Dir Wind Speed Gust Speed Precip Events Conditions
12:53 AM 30.9 °F 23.5 °F 21.9 °F 69% 30.08 in 10.0 mi NNW 8.1 mph - N/A   Overcast
1:53 AM 30.9 °F 24.3 °F 21.9 °F 69% 30.07 in 10.0 mi NNW 6.9 mph - N/A   Overcast
2:53 AM 28.9 °F 23.9 °F 21.9 °F 75% 30.08 in 10.0 mi NW 4.6 mph - N/A   Overcast
3:53 AM 28.0 °F 22.8 °F 21.9 °F 78% 30.07 in 10.0 mi NW 4.6 mph - N/A   Overcast
4:53 AM 26.1 °F 21.9 °F 21.0 °F 81% 30.06 in 10.0 mi NW 3.5 mph - N/A   Partly Cloudy
5:53 AM 26.1 °F 21.9 °F 19.9 °F 78% 30.05 in 10.0 mi WNW 3.5 mph - N/A   Partly Cloudy
6:53 AM 25.0 °F 19.3 °F 19.9 °F 81% 30.05 in 10.0 mi WNW 4.6 mph - N/A   Clear
7:53 AM 24.1 °F 15.2 °F 19.9 °F 84% 30.06 in 10.0 mi NW 8.1 mph - N/A   Clear
8:53 AM 28.0 °F 17.5 °F 21.0 °F 75% 30.06 in 10.0 mi NW 12.7 mph - N/A   Scattered Clouds
9:01 AM 28.4 °F 18.5 °F 19.4 °F 69% 30.00 in 10.0 mi NW 11.5 mph - N/A   Mostly Cloudy
9:53 AM 28.0 °F 16.1 °F 18.0 °F 66% 30.06 in 10.0 mi NW 16.1 mph 21.9 mph N/A   Mostly Cloudy
10:53 AM 28.9 °F 18.6 °F 18.0 °F 64% 30.07 in 10.0 mi WNW 12.7 mph - N/A   Overcast
11:53 AM 30.0 °F 19.1 °F 18.0 °F 61% 30.07 in 10.0 mi NNW 15.0 mph 23.0 mph N/A   Overcast
12:53 PM 30.0 °F 18.3 °F 19.0 °F 64% 30.07 in 10.0 mi NW 17.3 mph 23.0 mph N/A   Overcast
1:53 PM 30.9 °F 20.2 °F 19.0 °F 61% 30.08 in 10.0 mi NW 15.0 mph 23.0 mph N/A   Overcast
2:09 PM 30.2 °F 19.8 °F 19.4 °F 64% 30.02 in 10.0 mi NW 13.8 mph 23.0 mph N/A   Overcast
2:36 PM 32.0 °F 21.2 °F 19.4 °F 60% 30.03 in 10.0 mi NW 16.1 mph 21.9 mph N/A   Overcast
2:48 PM 30.2 °F 20.8 °F 19.4 °F 64% 30.03 in 10.0 mi NW 11.5 mph - N/A   Overcast
2:53 PM 32.0 °F 22.1 °F 19.0 °F 59% 30.09 in 10.0 mi NNW 13.8 mph - N/A   Mostly Cloudy
3:53 PM 32.0 °F 23.0 °F 19.0 °F 59% 30.10 in 10.0 mi NW 11.5 mph - N/A   Overcast
4:53 PM 30.9 °F 24.3 °F 19.0 °F 61% 30.11 in 10.0 mi NW 6.9 mph - N/A   Overcast
5:53 PM 30.0 °F 24.1 °F 19.0 °F 64% 30.12 in 10.0 mi NNW 5.8 mph - N/A   Overcast
6:53 PM 26.1 °F - 19.0 °F 75% 30.14 in 10.0 mi Calm Calm - N/A   Scattered Clouds
7:53 PM 28.0 °F 20.8 °F 19.0 °F 69% 30.14 in 10.0 mi WNW 6.9 mph - N/A   Overcast
8:53 PM 30.0 °F 25.2 °F 18.0 °F 61% 30.14 in 10.0 mi WNW 4.6 mph - N/A   Overcast
9:53 PM 28.9 °F 25.2 °F 19.0 °F 67% 30.15 in 10.0 mi WSW 3.5 mph - N/A   Overcast
10:53 PM 28.9 °F 25.2 °F 19.9 °F 69% 30.15 in 10.0 mi West 3.5 mph - N/A   Overcast
11:53 PM 28.9 °F 23.9 °F 19.9 °F 69% 30.15 in 10.0 mi West 4.6 mph - N/A   Overcast